• Join FlightAware (Why Join?)
  • Login
  • US Flag 
05:38PM EST


 

Airport Tracker/Info


-or-


 

Live Flight TrackerFlight Track Log ✈ N516QS ✈ 08-Jul-2013 ✈ KHPN - KBUF

Flight Track Log - Related Links

Times and Time Zones

All times are in EDT time to prevent confusion due to time zone crossing. See the N516QS flight status page for this flight to view local times or setup timezone preferences in your user account.

Time Position Orientation Groundspeed Altitude Reporting Facility
EDT Latitude Longitude Course Direction KTS MPH feet Rate Location/Type
07:08AM 41.1000 -73.8333 289° West 228 262 3,200  Level New York TRACON
07:10AM 41.1425 -73.9975 289° West 253 291 6,800 1,884 Climbing New York Center
07:11AM 41.1906 -74.0714 311° West 258 297 8,600 1,983 Climbing New York Center
07:12AM 41.2275 -74.1558 300° West 269 310 10,800 1,800 Climbing New York Center
07:13AM 41.2022 -74.2403 289° West 245 282 12,200 1,109 Climbing New York Center
07:14AM 41.2094 -74.3481 275° West 274 315 13,000 900 Climbing New York Center
07:15AM 41.2183 -74.4672 276° West 308 354 14,000 1,289 Climbing New York Center
07:16AM 41.2372 -74.5894 282° West 341 392 15,600 1,488 Climbing New York Center
07:17AM 41.2961 -74.6978 306° West 347 399 17,000 1,350 Climbing New York Center
07:18AM 41.3556 -74.7953 309° West 364 419 18,300 1,488 Climbing New York Center
07:19AM 41.4306 -74.9103 311° West 382 440 20,000 1,613 Climbing New York Center
07:20AM 41.4972 -75.0253 308° West 390 449 21,500 1,513 Climbing New York Center
07:21AM 41.5661 -75.1406 309° West 390 449 23,000 1,240 Climbing New York Center
07:22AM 41.6089 -75.2739 293° West 390 449 24,000 545 Climbing New York Center
07:23AM 41.6475 -75.4097 291° West 390 449 24,100  Climbing New York Center
07:24AM 41.6878 -75.5486 291° West 395 455 24,000 -51 Descending New York Center
07:25AM 41.7278 -75.6903 291° West 400 460 24,000  Level New York Center
07:26AM 41.7678 -75.8294 291° West 400 460 24,000  Level New York Center
07:27AM 41.8056 -75.9689 290° West 400 460 24,000  Level New York Center
07:28AM 41.8447 -76.1139 290° West 405 466 24,000  Level New York Center
07:29AM 41.8842 -76.2564 290° West 405 466 24,000  Level New York Center
07:30AM 41.9164 -76.3706 291° West 410 472 24,000  Level New York Center
07:31AM 41.9589 -76.5275 290° West 410 472 24,000  Level New York Center
07:32AM 41.9975 -76.6703 290° West 415 478 24,000  Level New York Center
07:33AM 42.0361 -76.8161 290° West 415 478 24,000  Level New York Center
07:34AM 42.0758 -76.9547 291° West 415 478 24,000  Level Cleveland Center
07:35AM 42.1200 -77.1006 292° West 433 498 24,000  Level Cleveland Center
07:36AM 42.1658 -77.2436 293° West 433 498 24,000 -550 Level Cleveland Center
07:37AM 42.2117 -77.3844 294° West 423 487 22,900 -1,450 Descending Cleveland Center
07:38AM 42.2592 -77.5250 295° West 418 481 21,100 -1,800 Descending Cleveland Center
07:39AM 42.3022 -77.6633 293° West 407 468 19,300 -1,750 Descending Cleveland Center
07:40AM 42.3497 -77.8100 294° West 402 463 17,600 -1,650 Descending Cleveland Center
07:41AM 42.3925 -77.9375 294° West 394 453 16,000 -1,600 Descending Cleveland Center
07:42AM 42.4328 -78.0653 293° West 381 438 14,400 -1,600 Descending Cleveland Center
07:43AM 42.4708 -78.1878 293° West 370 426 12,800 -1,600 Descending Cleveland Center
07:44AM 42.5169 -78.2986 299° West 360 414 11,200 -1,600 Descending Cleveland Center
07:45AM 42.5931 -78.3608 329° Northwest 317 365 9,600 -1,250 Descending Cleveland Center
07:46AM 42.6608 -78.4092 332° Northwest 300 345 8,700 -950 Descending Cleveland Center
07:47AM 42.7297 -78.4267 349° North 278 320 7,700 -950 Descending Cleveland Center
07:48AM 42.8067 -78.4183 North 273 314 6,800 -850 Descending Cleveland Center
07:49AM 42.8858 -78.4100 North 262 302 6,000 -670 Descending Cleveland Center
07:52AM 43.0333 -78.4000 North 216 249 4,600 -883 Descending Buffalo TRACON
07:53AM 43.0833 -78.4333 334° Northwest 200 230 3,100 -1,105 Descending Buffalo TRACON
07:53AM 43.0833 -78.5000 270° West 173 199 2,500 -316 Descending Buffalo TRACON
07:54AM 43.0667 -78.5500 245° Southwest 157 181 2,500  Level Buffalo TRACON
07:56AM 43.0333 -78.6000 228° Southwest 167 192 2,500 -198 Level Buffalo TRACON
07:57AM 43.0000 -78.6500 228° Southwest 165 190 2,100 -550 Descending Buffalo TRACON
07:58AM 42.9667 -78.6833 216° Southwest 130 150 1,400 -700 Descending Buffalo TRACON
07:59AM 42.9500 -78.7167 236° Southwest 114 131 700 -700 Descending Buffalo TRACON